Zurück zum Katalog

STARLINK-3671

AktivKommunikationVLEO
NORAD 51972·PAYLOAD·🇺🇸 United States

Gestartet Mar 9, 2022 von Cape Canaveral Space Force Station

Loading…

Nächste Überflüge (nächste 24 Stunden)

TLE

AktuellSource: CelesTrak SupGP

Epoche: Sep 14, 2026, 20:06 UTC

1 51972C 22025S   26257.83798611  .00042996  00000+0  13824-2 0  2576
2 51972  53.1580 237.1654 0001259  75.8756  89.3006 15.31686786    19

Verfolge STARLINK-3671 in Echtzeit mit AllMySat

Download on the App Store